Tracking 26922 objects as of 1-Feb-2023
HD Live streaming from Space Station
objects crossing your sky now

COSMOS 886 DEB

Track COSMOS 886 DEB now!
10-day predictions


NORAD ID: 14502
Int'l Code: 1976-126BP
Perigee: 546.0 km
Apogee: 1,712.5 km
Inclination: 65.8 °
Period: 107.7 minutes
Semi major axis: 7500 km
RCS: 0.0064 m2 (small)
Launch date: December 27, 1976
Source: Commonwealth of Independent States (former USSR) (CIS)
Launch site: TYURATAM MISSILE AND SPACE COMPLEX (TTMTR)

Note: This is SATELLITE DEBRIS
Your satellite tracking list
Your tracking list is empty




NASA's NSSDC Master Catalog

Two Line Element Set (TLE):
1 14502U 76126BP  23031.50183153  .00003137  00000-0  10245-2 0  9997
2 14502  65.7809 211.2712 0777657 249.7362 137.9417 13.36554018992645
Source of the keplerian elements: AFSPC